User: anonymous   Login
Location: Barrio Pajares
(40.5500°N, 4.1667°W)
Time: 07:09:00
(UTC+00:00)
Language:

Cosmos 2100 Rocket - Orbit

View from above orbital plane
View from above orbital plane
View from above satellite
View from above satellite

Ground track
Ground track

The orbit data is extracted from the following two-line orbital elements,

1 20805U 90083B   24197.81602590  .00000112  00000-0  99298-4 0  9994
2 20805  82.9378 300.9384 0030834  13.0596 107.4235 13.76112034698691
Epoch (UTC): 15 July 2024 19:35:04
Eccentricity: 0.0030834
inclination: 82.9378°
perigee height: 955 km
apogee height: 1000 km
right ascension of ascending node: 300.9384°
argument of perigee: 13.0596°
revolutions per day: 13.76112034
mean anomaly at epoch: 107.4235°
orbit number at epoch: 69869

The dashed part of the orbit path shows where the satellite is in the earth's shadow,  

DLR